DLH457 EDDM-KSAN

Flight info

Callsign DLH457
Flight time N/A
Altitude 34000
Route GIVMI1N GIVMI Y101 INBED DCT REKDI DCT LOHRE DCT ADKUV DCT DENUT L610 KOPUL Q60 OKSAW DCT TEWXI DCT LIPGO DCT KLY DCT ENULA DCT PIKIL/M081F350 DCT 57N020W 57N030W 57N040W 56N050W DCT JANJO/N0471F360 DCT HENDY/N0473F380 DCT YSP DCT DLH DCT HON DCT BFF/N0469F400 J157 LAR DCT JNC DCT EED BARET5
Aircraft A343/H-SDE2E3FGHIJ4J5M1RWXY/LB1D1

Departure

Time 2026-05-04 22:44
Airport Munich Airport (EDDM)

Arrival

Time N/A
Airport San Diego International Airport (KSAN)
Time Latitude Longitude Altitude Speed Heading
2026-05-04 22:07 48.35531 11.79728 1489 ft 0 kts 83°
2026-05-04 22:29 48.35531 11.79722 1489 ft 3 kts 83°
2026-05-04 22:29 48.35528 11.79683 1489 ft 4 kts 83°
2026-05-04 22:30 48.35525 11.79645 1473 ft 2 kts 83°
2026-05-04 22:30 48.35525 11.79611 1474 ft 4 kts 107°
2026-05-04 22:30 48.35537 11.79580 1474 ft 4 kts 153°
2026-05-04 22:30 48.35561 11.79571 1476 ft 4 kts 173°
2026-05-04 22:31 48.35579 11.79568 1474 ft 0 kts 173°
2026-05-04 22:35 48.35549 11.79573 1474 ft 8 kts 173°
2026-05-04 22:35 48.35466 11.79588 1476 ft 16 kts 173°
2026-05-04 22:36 48.35344 11.79609 1474 ft 18 kts 173°
2026-05-04 22:36 48.35243 11.79628 1485 ft 17 kts 173°
2026-05-04 22:36 48.35130 11.79648 1479 ft 15 kts 173°
2026-05-04 22:36 48.35028 11.79666 1484 ft 14 kts 174°
2026-05-04 22:37 48.35005 11.79670 1489 ft 0 kts 174°
2026-05-04 22:38 48.35002 11.79677 1474 ft 1 kts 137°
2026-05-04 22:38 48.34983 11.79712 1474 ft 7 kts 128°
2026-05-04 22:38 48.34971 11.79751 1477 ft 0 kts 110°
2026-05-04 22:39 48.34810 11.79720 1489 ft 0 kts 110°
2026-05-04 22:39 48.34808 11.79726 1489 ft 0 kts 128°
2026-05-04 22:39 48.34784 11.79720 1489 ft 12 kts 185°
2026-05-04 22:39 48.34707 11.79769 1474 ft 10 kts 116°
2026-05-04 22:40 48.34706 11.79863 1487 ft 8 kts 85°
2026-05-04 22:40 48.34712 11.79943 1476 ft 7 kts 83°
2026-05-04 22:40 48.34717 11.80012 1484 ft 6 kts 83°
2026-05-04 22:40 48.34725 11.80072 1476 ft 6 kts 75°
2026-05-04 22:41 48.34739 11.80133 1478 ft 7 kts 71°
2026-05-04 22:41 48.34742 11.80198 1482 ft 6 kts 105°
2026-05-04 22:41 48.34715 11.80236 1474 ft 4 kts 160°
2026-05-04 22:41 48.34681 11.80249 1478 ft 7 kts 171°
2026-05-04 22:42 48.34616 11.80260 1477 ft 12 kts 173°
2026-05-04 22:42 48.34525 11.80274 1478 ft 13 kts 181°
2026-05-04 22:42 48.34464 11.80200 1477 ft 11 kts 246°
2026-05-04 22:42 48.34452 11.80095 1489 ft 11 kts 263°
2026-05-04 22:43 48.34429 11.79800 1482 ft 53 kts 264°
2026-05-04 22:43 48.34368 11.78992 1483 ft 101 kts 263°
2026-05-04 22:43 48.34270 11.77721 1482 ft 142 kts 263°
2026-05-04 22:43 48.34138 11.76068 1498 ft 175 kts 262°
2026-05-04 22:44 48.33992 11.74359 2268 ft 148 kts 264°
2026-05-04 22:44 48.33857 11.72706 2462 ft 172 kts 265°
2026-05-04 22:44 48.33746 11.70830 2749 ft 184 kts 265°
2026-05-04 22:44 48.33628 11.68919 3159 ft 185 kts 264°
2026-05-04 22:45 48.33490 11.66949 3561 ft 187 kts 263°
2026-05-04 22:45 48.33338 11.63150 4445 ft 185 kts 281°
2026-05-04 22:45 48.33897 11.61399 4864 ft 185 kts 304°
2026-05-04 22:46 48.34670 11.59853 5264 ft 186 kts 306°
2026-05-04 22:46 48.35465 11.58308 5618 ft 190 kts 306°
2026-05-04 22:46 48.36291 11.56683 5855 ft 203 kts 305°
2026-05-04 22:46 48.37182 11.54913 6052 ft 216 kts 305°
2026-05-04 22:47 48.38119 11.53040 6228 ft 234 kts 305°
2026-05-04 22:47 48.39117 11.51040 6445 ft 250 kts 305°
2026-05-04 22:47 48.40203 11.48864 6851 ft 260 kts 305°
2026-05-04 22:47 48.40929 11.47408 7145 ft 266 kts 305°
2026-05-04 22:48 48.42620 11.44655 7708 ft 280 kts 323°
2026-05-04 22:48 48.44441 11.43479 8104 ft 292 kts 346°
2026-05-04 22:48 48.46454 11.42899 8602 ft 298 kts 349°
2026-05-04 22:48 48.48517 11.42368 9111 ft 303 kts 348°
2026-05-04 22:49 48.50602 11.41823 9642 ft 307 kts 348°
2026-05-04 22:49 48.52727 11.41255 10090 ft 313 kts 347°
2026-05-04 22:49 48.54201 11.40855 10245 ft 322 kts 347°
2026-05-04 22:49 48.56417 11.40248 10469 ft 335 kts 347°
2026-05-04 22:50 48.58764 11.39604 10703 ft 347 kts 347°
2026-05-04 22:50 48.61175 11.38940 10921 ft 359 kts 347°
2026-05-04 22:50 48.63682 11.38250 11139 ft 371 kts 347°
2026-05-04 22:50 48.66257 11.37540 11377 ft 382 kts 347°
2026-05-04 22:51 48.68889 11.36749 11720 ft 389 kts 343°
2026-05-04 22:51 48.71404 11.35233 12130 ft 390 kts 330°
2026-05-04 22:51 48.73763 11.33186 12620 ft 391 kts 325°
2026-05-04 22:51 48.76038 11.30911 13153 ft 392 kts 323°
2026-05-04 22:52 48.78278 11.28540 13701 ft 394 kts 322°
2026-05-04 22:52 48.80522 11.26140 14150 ft 396 kts 322°
2026-05-04 22:52 48.82794 11.23749 14622 ft 399 kts 324°
2026-05-04 22:52 48.85263 11.21780 15067 ft 404 kts 334°
2026-05-04 22:53 48.87862 11.20178 15535 ft 407 kts 337°